STARLINK-32275, 60360

Orbit data source: Space-Track

STARLINK-32275, 60360 is a payload satellite owned by SpaceX/Seattle (US) in LEO that was launched on Sun, 04 Aug 2024 UTC via an FALCON 9 launch vehicle from the Air Force Western Test Range (AFWTR). Payload-class satellites include a variety of spacecraft equipped with specific instruments for various scientific and technological missions. These include communications satellites like Starlink; space stations such as the ISS; scientific satellites like the Hubble; Earth observation satellites from companies like Planet Labs, Umbra, and HawkEye 360; GPS; miniature CubeSats for education and research; and military/defense satellites.

Loading next visibility...
Identifier
60360, 2024-138F
Orbit
LEO
Last TLE update
8 hours ago
Origin
Manufacturer
SpaceX/Seattle
Mission
Operational Commercial Communications
Bus & Motor
STARLINK V2M, Unknown motor
Mass
730 kg wet, ~700 kg dry
Launch date (UTC)
2024-08-04 (11 months ago)
Launch vehicle
FALCON 9
Launch site
Air Force Western Test Range (AFWTR)
Object type
Payload
Rocket body
Debris
Shape & HBR
Box + 2 Pan, 29 m
Radar Cross Section
33.884 m², Large (>1 m²)

Expand to show TLE details & history

TLE from 8 hours ago
0 STARLINK-32275
1 60360U 24138F   25182.00676723  .00000019  00000-0  12750-4 0  9991
2 60360  53.1601  38.6596 0001084  76.4013 283.7108 15.30195307 52082
Epoch: 2025-07-01T00:09Z
TLE epoch observation values (Epoch: 2025-07-01T00:09:44.688Z)
Latitude
-0.00007°
Longitude
116.91494°
Altitude
475.953 km
Speed
7.629 km/s
True Right ascension
02h 34m 38s
True Declination
0° 00' 00"
Sunlit
Object was in daylight at epoch
Visualization orbit readout
Latitude
29.65933°
Longitude
-89.82586°
Altitude
476.551 km
Speed
7.632 km/s
Apparent Right ascension
10h 46m 34s
Apparent Declination
-4° 25' 22"
Sunlit
Object is in daylight
Visualization observer readout
Local Sidereal Time
20:15:12
Azimuth
306.102° NW
Elevation
-40.796°
Doppler factor
1
Orbital elements
Apogee altitude
476.228 km
Perigee altitude
474.743 km
Semi-major axis
6,853.622 km
Eccentricity
0.00011
Inclination
53.1601°
RAAN
38.6596°
Arg. of periapsis
76.4013°
True anomaly
Unknown
Mean anomaly
283.7108°
Eccentric anomaly
Unknown
Mean motion
3.82528 °/min
Orbital period
94.11 mins
BSTAR
0.00001275
Loading maneuver chart data...
Loading SW <> Apogee altitude chart data...
Loading historical data...
Loading historical data...
Loading historical data...
Loading historical data...
Loading historical data...
Loading historical data...
Loading historical data...

STARLINK-32275 Visibility forecast

Observer location: undefined°, undefined°

Span
Click to sort rows by Start time (UTC) header in descending order
Start Az.
Max El. time (UTC)
Max El. Az.
Max El.
End time (UTC)
End Az.
5 mins2025-07-01 17:37:03.535Z252.18° W2025-07-01 17:39:03.535Z319.83° NNW39.67°2025-07-01 17:42:03.535Z40.457° NE
4 mins2025-07-01 22:34:03.535Z345.697° N2025-07-01 22:36:03.535Z27.973° NE19.905°2025-07-01 22:38:03.535Z67.745° E
5 mins2025-07-02 00:12:03.535Z300.172° NW2025-07-02 00:14:03.535Z232.64° WSW42.552°2025-07-02 00:17:03.535Z141.966° SSE
|